Lucknow / Amausi, India

4:56 AM IST on February 20, 2017 (GMT +0530)
Lucknow

Weather History for VILK - September, 2012

Change the Weather History Date:

Wednesday, September 5, 2012

  Actual Average Record
Temperature  
Mean Temperature 82 °F -  
Max Temperature 90 °F 87 °F 98 °F (2014)
Min Temperature 75 °F 73 °F 37 °F (2000)
Cooling Degree Days 18    
Growing Degree Days 32 (Base 50)    
Moisture  
Dew Point 76 °F    
Average Humidity 77    
Maximum Humidity 89    
Minimum Humidity 59    
Precipitation  
Precipitation 0.00 in - - ()
Sea Level Pressure  
Sea Level Pressure 29.62 in    
Wind  
Wind Speed 10 mph ()    
Max Wind Speed 15 mph    
Max Gust Speed 23 mph    
Visibility 3.1 miles    
Events      
Averages and records for this station are not official NWS values.
T = Trace of Precipitation, MM = Missing Value Source: Averaged Metar Reports

Daily Weather History Graph

Daily Weather History Graph

Search for Another Location

Airport or City:

Trip Planner

Search our weather history database for the weather conditions in past years. The results will help you decide how hot, cold, wet, or windy it might be!

Date:

Astronomy

Sep. 05, 2012 Rise Set
Actual Time 5:47 AM IST 6:22 PM IST
Civil Twilight 5:24 AM IST 6:45 PM IST
Nautical Twilight 4:56 AM IST 7:12 PM IST
Astronomical Twilight 4:28 AM IST 7:40 PM IST
Moon 9:07 PM IST (9/5) 9:52 AM IST (9/5)
Length of Visible Light 13h 21m
Length of Day
12h 34m
Waning Gibbous, 79% of the Moon is Illuminated
Sep 5
Waning Gibbous
Sep 8
Last Quarter
Sep 16
New
Sep 23
First Quarter
Sep 30
Full

Hourly Weather History & Observations

Time (IST) Temp. Heat Index Dew Point Humidity Pressure Visibility Wind Dir Wind Speed Gust Speed Precip Events Conditions
12:00 AM 82.4 °F 90.9 °F 77.0 °F 84% 29.65 in 3.1 mi ENE 9.2 mph - N/A   Haze
1:00 AM 82.4 °F 90.9 °F 77.0 °F 84% 29.65 in 3.1 mi ENE 9.2 mph - N/A   Haze
2:00 AM 82.4 °F 90.9 °F 77.0 °F 84% 29.62 in 3.1 mi ENE 11.5 mph - N/A   Haze
2:30 AM 81 °F - 77 °F 85% 29.62 in 2 mi ENE 13.8 mph - -   Haze
3:00 AM 80.6 °F 87.1 °F 77.0 °F 89% 29.62 in 3.1 mi East 13.8 mph - N/A   Haze
4:00 AM 80.6 °F 87.1 °F 77.0 °F 89% 29.59 in 3.1 mi East 13.8 mph - N/A   Haze
5:00 AM 78.8 °F - 73.4 °F 83% 29.62 in 3.1 mi East 11.5 mph - N/A   Haze
5:30 AM 78 °F - 74 °F 85% 29.63 in 2 mi East 9.2 mph - -   Haze
5:30 AM 78.8 °F - 73.4 °F 83% 29.62 in 3.1 mi East 9.2 mph - N/A   Haze
6:00 AM 78.8 °F - 73.4 °F 83% 29.62 in 3.1 mi East 9.2 mph - N/A   Haze
6:30 AM 78.8 °F - 75.2 °F 89% 29.62 in 3.1 mi East 9.2 mph - N/A   Haze
7:00 AM 80.6 °F 86.2 °F 75.2 °F 84% 29.65 in 3.1 mi East 9.2 mph - N/A   Haze
7:30 AM 80.6 °F 86.2 °F 75.2 °F 84% 29.62 in 3.1 mi East 11.5 mph - N/A   Haze
8:00 AM 82.4 °F 89.5 °F 75.2 °F 79% 29.65 in 3.1 mi East 10.4 mph - N/A   Haze
8:30 AM 81 °F - 76 °F 79% 29.67 in 2 mi ENE 11.5 mph - -   Haze
8:30 AM 80.6 °F 86.2 °F 75.2 °F 84% 29.65 in 3.1 mi ENE 11.5 mph - N/A   Haze
9:30 AM 82.4 °F 89.5 °F 75.2 °F 79% 29.68 in 3.1 mi East 13.8 mph - N/A   Haze
10:30 AM 84.2 °F 94.1 °F 77.0 °F 79% 29.68 in 3.7 mi East 15.0 mph - N/A   Scattered Clouds
11:00 AM 86.0 °F 96.9 °F 77.0 °F 74% 29.68 in 3.7 mi ESE 8.1 mph 19.6 mph N/A   Scattered Clouds
11:30 AM 88 °F - 76 °F 61% 29.67 in 2 mi ESE 13.8 mph - -   Mostly Cloudy
11:30 AM 87.8 °F 99.7 °F 77.0 °F 70% 29.65 in 3.7 mi ESE 9.2 mph 20.7 mph N/A   Scattered Clouds
12:00 PM 87.8 °F 99.7 °F 77.0 °F 70% 29.65 in 3.7 mi ESE 11.5 mph 23.0 mph N/A   Scattered Clouds
12:30 PM 87.8 °F 99.7 °F 77.0 °F 70% 29.65 in 3.7 mi East 9.2 mph 20.7 mph N/A   Scattered Clouds
1:00 PM 87.8 °F 99.7 °F 77.0 °F 70% 29.65 in 3.7 mi East 9.2 mph 20.7 mph N/A   Scattered Clouds
1:30 PM 87.8 °F 99.7 °F 77.0 °F 70% 29.62 in 3.7 mi East 9.2 mph 20.7 mph N/A   Scattered Clouds
2:00 PM 87.8 °F 99.7 °F 77.0 °F 70% 29.59 in 3.7 mi East 9.2 mph 20.7 mph N/A   Scattered Clouds
2:30 PM 90 °F - 77 °F 59% 29.59 in 2 mi East 13.8 mph - -   Partly Cloudy
2:30 PM 89.6 °F 102.2 °F 77.0 °F 66% 29.59 in 3.7 mi East 9.2 mph 20.7 mph N/A   Scattered Clouds
3:30 PM 89.6 °F 102.2 °F 77.0 °F 66% 29.56 in 3.7 mi East 11.5 mph 23.0 mph N/A   Scattered Clouds
4:00 PM 89.6 °F 102.2 °F 77.0 °F 66% 29.56 in 3.7 mi East 11.5 mph 23.0 mph N/A   Scattered Clouds
4:30 PM 89.6 °F 102.2 °F 77.0 °F 66% 29.53 in 3.7 mi East 11.5 mph 23.0 mph N/A   Partly Cloudy
5:00 PM 89.6 °F 102.2 °F 77.0 °F 66% 29.56 in 3.7 mi East 13.8 mph - N/A   Scattered Clouds
5:30 PM 86 °F - 77 °F 68% 29.56 in 2 mi ESE 13.8 mph - -   Partly Cloudy
5:30 PM 86.0 °F 96.9 °F 77.0 °F 74% 29.56 in 3.7 mi ESE 13.8 mph - N/A   Scattered Clouds
6:00 PM 86.0 °F 96.9 °F 77.0 °F 74% 29.56 in 3.7 mi East 11.5 mph - N/A   Scattered Clouds
6:30 PM 84.2 °F 94.1 °F 77.0 °F 79% 29.59 in 3.7 mi East 9.2 mph - N/A   Scattered Clouds
7:30 PM 84.2 °F 94.1 °F 77.0 °F 79% 29.59 in 3.1 mi East 9.2 mph - N/A   Haze
8:00 PM 82.4 °F 90.9 °F 77.0 °F 84% 29.62 in 3.1 mi East 6.9 mph - N/A   Haze
8:30 PM 82 °F - 77 °F 80% 29.63 in 2 mi ENE 5.8 mph - -   Haze
8:30 PM 82.4 °F 90.9 °F 77.0 °F 84% 29.62 in 3.1 mi ENE 5.8 mph - N/A   Haze
9:00 PM 82.4 °F 90.9 °F 77.0 °F 84% 29.65 in 3.1 mi ENE 5.8 mph - N/A   Haze
10:00 PM 82.4 °F 88.2 °F 73.4 °F 74% 29.65 in 3.1 mi East 9.2 mph - N/A   Haze
11:00 PM 80.6 °F 85.4 °F 73.4 °F 79% 29.65 in 3.1 mi East 9.2 mph - N/A   Haze